Date String (YYYY-MM-DD hh:mm:ss) UTC,Instrument flags,Ambient pressure (hPa),Sample flow (lpm),Bypass flow (lpm),Sample temperature (°C),Ambient temperature (°C),ASC tube jacket temperature (°C),LED temperature (°C),Box temperature (°C),Sample RH (%),Span deviation,Mass concentration (μg/m³),Mass concentration (μg/m³),Mass concentration (μg/m³)
DateTimeUTC,F1_M11,P_M11,Q1_M11,Q2_M11,T1_M11,T2_M11,T3_M11,T4_M11,T5_M11,U1_M11,ZSPAN_M11,X2_M11,X0_M11,X1_M11
2022-10-09 21:00:00,,0830.9,5.00,0.00,29.9,28.7,00.0,38.5,31.8,14.5,0000.5,0005.68,0009.88,0005.16
2022-10-09 21:01:00,,0830.8,4.99,0.00,29.9,27.3,00.0,38.5,31.6,14.8,0000.5,0005.67,0011.08,0005.17
2022-10-09 21:02:00,,0830.7,5.01,0.00,29.8,26.8,00.0,38.4,31.5,14.7,0000.4,0005.67,0011.36,0005.19
2022-10-09 21:03:00,,0830.8,5.00,0.00,29.7,26.9,00.0,38.4,31.5,14.8,0000.0,0005.70,0010.91,0005.21
2022-10-09 21:04:00,,0830.8,5.00,0.00,29.7,27.2,00.0,38.4,31.4,14.8,0000.3,0005.70,0011.00,0005.22
2022-10-09 21:05:00,,0830.8,5.00,0.00,29.7,27.5,00.0,38.4,31.4,14.6,0000.9,0005.66,0011.24,0005.22
2022-10-09 21:06:00,,0830.7,5.00,0.00,29.7,27.8,00.0,38.4,31.5,15.1,0000.8,0005.66,0011.51,0005.22
2022-10-09 21:07:00,,0830.8,5.01,0.00,29.7,28.0,00.0,38.4,31.5,15.0,0001.1,0005.72,0013.06,0005.22
2022-10-09 21:08:00,,0830.8,4.99,0.00,29.7,28.2,00.0,38.4,31.5,15.0,0000.9,0005.75,0013.20,0005.23
2022-10-09 21:09:00,,0830.7,5.00,0.00,29.7,28.4,00.0,38.4,31.6,14.8,0001.0,0005.76,0013.18,0005.24
2022-10-09 21:10:00,,0830.8,5.00,0.00,29.7,28.5,00.0,38.4,31.6,14.6,0001.4,0005.80,0013.24,0005.26
2022-10-09 21:11:00,,0830.8,5.00,0.00,29.7,28.6,00.0,38.4,31.7,14.7,0001.6,0005.79,0013.42,0005.25
2022-10-09 21:12:00,,0830.7,5.01,0.00,29.8,28.7,00.0,38.4,31.7,14.9,0001.2,0005.78,0012.91,0005.23
2022-10-09 21:13:00,,0830.8,4.99,0.00,29.8,28.8,00.0,38.5,31.8,14.7,0000.9,0005.80,0012.63,0005.21
2022-10-09 21:14:00,,0830.7,5.00,0.00,29.8,28.9,00.0,38.5,31.8,14.6,0001.2,0005.77,0012.68,0005.19
2022-10-09 21:15:00,,0830.7,5.01,0.00,29.9,29.0,00.0,38.5,31.8,14.3,0000.3,0005.72,0012.59,0005.17
2022-10-09 21:16:00,,0830.8,4.98,0.00,29.9,29.0,00.0,38.5,31.9,14.2,0000.0,0005.71,0012.41,0005.15
2022-10-09 21:17:00,,0830.8,4.99,0.00,30.0,29.1,00.0,38.6,31.9,14.2,0000.0,0005.70,0012.26,0005.15
2022-10-09 21:18:00,,0830.8,5.01,0.00,30.0,29.0,00.0,38.6,32.0,14.4,0000.0,0005.67,0011.02,0005.16
2022-10-09 21:19:00,,0830.7,4.99,0.00,30.0,27.5,00.0,38.6,31.7,14.4,0000.0,0005.65,0010.79,0005.18
2022-10-09 21:20:00,,0830.8,4.99,0.00,29.9,26.1,00.0,38.5,31.4,14.4,0000.0,0005.66,0011.28,0005.19
2022-10-09 21:21:00,,0830.8,5.00,0.00,29.8,26.1,00.0,38.5,31.4,14.4,0000.0,0005.64,0011.27,0005.19
2022-10-09 21:22:00,,0830.8,5.00,0.00,29.7,26.4,00.0,38.4,31.3,14.5,0000.0,0005.63,0011.39,0005.21
2022-10-09 21:23:00,,0830.8,4.99,0.00,29.6,26.8,00.0,38.4,31.3,14.4,0000.0,0005.64,0010.41,0005.23
2022-10-09 21:24:00,,0830.7,4.99,0.00,29.6,27.2,00.0,38.4,31.3,14.5,0000.0,0005.63,0010.34,0005.25
2022-10-09 21:25:00,,0830.7,5.00,0.00,29.6,27.5,00.0,38.4,31.4,14.3,-000.0,0005.66,0010.37,0005.25
2022-10-09 21:26:00,,0830.7,5.00,0.00,29.6,27.8,00.0,38.4,31.4,14.4,-000.2,0005.68,0010.80,0005.25
2022-10-09 21:27:00,,0830.7,4.99,0.00,29.6,28.0,00.0,38.4,31.4,14.5,-000.9,0005.70,0010.79,0005.27
2022-10-09 21:28:00,,0830.7,5.01,0.00,29.6,28.2,00.0,38.4,31.5,14.5,-001.3,0005.71,0011.41,0005.28
2022-10-09 21:29:00,,0830.7,4.98,0.00,29.6,28.4,00.0,38.4,31.5,14.3,-001.4,0005.70,0011.32,0005.27
2022-10-09 21:30:00,,0830.7,5.02,0.00,29.7,28.5,00.0,38.4,31.6,14.3,-000.4,0005.68,0011.34,0005.25
2022-10-09 21:31:00,,0830.8,4.99,0.00,29.7,28.6,00.0,38.4,31.6,14.2,0000.0,0005.71,0011.01,0005.23
2022-10-09 21:32:00,,0830.7,4.99,0.00,29.7,28.7,00.0,38.4,31.7,14.2,-000.3,0005.71,0011.04,0005.22
2022-10-09 21:33:00,,0830.6,5.00,0.00,29.8,28.8,00.0,38.4,31.7,14.2,0000.0,0005.74,0010.93,0005.22
2022-10-09 21:34:00,,0830.6,5.01,0.00,29.8,28.9,00.0,38.4,31.7,14.0,0000.0,0005.74,0011.11,0005.21
2022-10-09 21:35:00,,0830.6,5.00,0.00,29.8,29.0,00.0,38.5,31.8,14.0,0000.0,0005.74,0010.94,0005.21
2022-10-09 21:36:00,,0830.7,5.00,0.00,29.9,29.0,00.0,38.5,31.9,13.9,0000.0,0005.71,0010.71,0005.22
2022-10-09 21:37:00,,0830.6,5.01,0.00,29.9,29.1,00.0,38.5,31.9,14.0,0000.0,0005.71,0010.25,0005.23
2022-10-09 21:38:00,,0830.6,4.99,0.00,29.9,29.1,00.0,38.5,31.9,14.2,0000.0,0005.72,0010.08,0005.22
2022-10-09 21:39:00,,0830.6,5.00,0.00,30.0,29.2,00.0,38.6,32.0,14.2,0000.0,0005.71,0009.85,0005.20
2022-10-09 21:40:00,,0830.6,5.01,0.00,30.0,29.2,00.0,38.6,32.0,13.7,0000.0,0005.70,0009.54,0005.20
2022-10-09 21:41:00,,0830.6,4.99,0.00,30.1,29.3,00.0,38.6,32.0,13.7,0000.0,0005.72,0009.85,0005.21
2022-10-09 21:42:00,,0830.6,5.01,0.00,30.1,28.4,00.0,38.6,32.0,13.7,0000.0,0005.69,0010.15,0005.21
2022-10-09 21:43:00,,0830.6,5.00,0.00,30.1,27.2,00.0,38.6,31.9,13.7,0000.0,0005.70,0010.14,0005.22
2022-10-09 21:44:00,,0830.6,4.99,0.00,30.0,27.0,00.0,38.6,31.8,13.8,0000.0,0005.70,0010.33,0005.22
2022-10-09 21:45:00,,0830.6,5.00,0.00,29.9,27.2,00.0,38.6,31.7,13.8,0000.0,0005.70,0010.58,0005.22
2022-10-09 21:46:00,,0830.6,4.99,0.00,29.9,27.6,00.0,38.6,31.7,13.8,0000.0,0005.70,0010.56,0005.22
2022-10-09 21:47:00,,0830.6,4.99,0.00,29.9,27.9,00.0,38.6,31.7,13.8,0000.0,0005.70,0010.93,0005.21
2022-10-09 21:48:00,,0830.6,5.01,0.00,29.9,28.1,00.0,38.6,31.7,13.9,0000.0,0005.75,0011.17,0005.20
2022-10-09 21:49:00,,0830.6,4.99,0.00,29.9,28.4,00.0,38.6,31.7,13.7,0000.0,0005.75,0011.13,0005.19
2022-10-09 21:50:00,,0830.6,5.00,0.00,29.9,28.5,00.0,38.6,31.8,13.8,0000.0,0005.71,0010.58,0005.19
2022-10-09 21:51:00,,0830.6,5.00,0.00,29.9,28.7,00.0,38.6,31.8,13.8,0000.0,0005.70,0010.89,0005.18
2022-10-09 21:52:00,,0830.5,4.99,0.00,29.9,28.8,00.0,38.6,31.9,13.9,0000.0,0005.68,0011.28,0005.17
2022-10-09 21:53:00,,0830.5,4.99,0.00,30.0,28.9,00.0,38.6,31.9,13.6,0000.0,0005.69,0011.33,0005.17
2022-10-09 21:54:00,,0830.5,5.01,0.00,30.0,29.0,00.0,38.6,31.9,13.6,0000.0,0005.69,0011.46,0005.16
2022-10-09 21:55:00,,0830.6,4.99,0.00,30.0,29.1,00.0,38.7,32.0,13.6,0000.0,0005.68,0011.59,0005.14
2022-10-09 21:56:00,,0830.6,4.99,0.00,30.1,29.2,00.0,38.7,32.0,13.7,0000.0,0005.70,0011.03,0005.13
2022-10-09 21:57:00,,0830.6,5.02,0.00,30.1,29.2,00.0,38.7,32.0,13.9,0000.0,0005.74,0011.63,0005.12
2022-10-09 21:58:00,,0830.5,5.00,0.00,30.1,28.5,00.0,38.7,32.0,13.6,0000.0,0005.76,0011.86,0005.12
2022-10-09 21:59:00,,0830.5,5.00,0.00,30.1,26.8,00.0,38.7,31.8,13.7,0000.0,0005.72,0011.56,0005.12
